Wind_Speed
20 21 22 22 22 22 22 22 22 22 22 22 22 23 24 24 24 25 25 26 27 28 29 30 30 31 32 33 34 35 36 36 37 37 38 38 38 38 38 38 38 38 38
24 25 27 27 27 26 25 25 25 25 25 25 25 25 26 26 27 27 28 28 29 30 31 33 34 35 36 37 38 39 40 41 41 42 42 42 42 42 41 41 41 41 41
28 29 31 31 32 31 30 29 29 29 29 29 28 28 28 28 28 29 30 31 32 32 34 35 36 38 39 40 41 42 43 44 45 45 45 45 46 46 45 45 44 44 44
33 34 35 36 36 35 35 33 32 32 32 31 30 29 29 29 29 30 31 33 34 36 37 38 39 40 42 43 44 45 46 47 47 48 48 49 49 49 49 49 48 48 48
35 36 37 38 38 38 38 37 36 34 33 33 32 31 30 30 31 31 33 34 36 38 40 40 42 43 44 45 46 47 48 49 50 50 51 52 52 53 53 52 53 53 52
37 38 39 39 40 40 39 38 37 35 34 34 33 32 31 31 31 32 34 35 37 39 41 43 44 45 46 48 49 50 51 52 52 53 54 55 56 56 56 56 56 56 56
39 40 39 38 38 38 37 37 37 35 32 32 32 31 30 31 33 34 35 38 39 41 42 43 45 47 48 50 51 52 54 54 55 56 57 58 58 59 59 60 59 59 59
40 37 34 33 33 33 34 34 33 32 31 30 31 32 32 33 34 36 38 40 42 44 45 46 48 50 51 53 54 55 57 58 59 60 61 61 61 62 63 63 63 62 62
37 35 31 29 27 27 28 28 29 30 30 30 32 33 35 38 39 40 41 44 46 48 50 51 52 54 55 57 59 60 60 62 63 64 64 65 65 66 66 65 66 65 65
39 34 32 30 28 27 28 28 29 30 31 33 35 37 40 42 45 46 47 48 50 52 54 56 57 59 60 61 62 64 64 65 66 67 68 68 68 68 68 68 68 68 67
39 34 32 32 32 31 32 32 32 33 35 38 39 41 44 47 49 51 53 55 56 57 58 60 61 63 64 65 66 67 67 68 69 69 69 69 69 69 69 69 69 70 70
39 36 37 36 35 35 35 36 38 39 41 43 45 47 49 51 54 55 57 58 60 61 62 63 65 66 68 68 69 69 69 69 69 69 69 69 70 70 71 71 72 72 72
41 40 39 38 39 39 40 42 43 44 46 48 50 52 53 55 57 59 60 61 62 64 65 66 67 68 69 70 70 69 69 69 69 69 70 70 70 71 71 71 71 72 72
42 43 43 43 44 45 46 47 48 49 51 52 54 55 57 58 60 61 62 63 64 64 66 67 67 68 68 69 69 69 69 69 68 68 68 68 68 68 68 69 69 70 70
46 47 48 49 49 50 51 51 52 53 54 55 56 57 58 60 61 61 62 63 64 64 64 66 66 67 67 68 68 67 67 66 66 65 65 65 65 65 64 64 64 65 65
50 51 52 53 53 53 53 54 54 54 55 56 57 58 59 60 60 61 62 63 63 63 62 63 64 64 64 65 65 65 64 63 62 62 61 60 60 59 58 58 57 56 56
53 55 55 56 56 56 55 55 56 55 56 56 57 58 59 59 60 61 61 60 60 60 60 60 61 62 62 62 62 61 59 58 57 56 55 54 52 51 49 47 46 46 47
58 59 59 59 58 57 56 56 56 56 56 56 57 57 57 57 57 57 57 57 58 59 59 58 58 59 59 58 57 56 54 53 52 49 46 44 42 41 41 41 41 41 42
61 61 60 59 58 57 56 56 55 55 55 55 55 55 55 54 54 54 54 55 56 56 56 56 55 55 54 53 51 50 47 45 42 39 37 36 36 37 37 38 38 38 38
61 61 60 59 58 57 56 56 55 54 54 54 53 52 51 51 51 52 53 53 53 53 52 51 49 48 47 45 43 41 39 37 35 34 34 33 33 34 34 34 35 35 35
60 59 59 58 57 56 55 54 53 52 51 50 50 49 49 50 50 50 51 50 49 48 46 45 42 40 38 36 35 34 33 32 32 33 32 32 32 32 32 32 32 32 32
59 58 57 56 55 54 53 52 50 49 48 48 48 48 48 48 48 48 47 45 43 42 39 37 34 32 31 31 30 30 30 30 29 30 31 31 31 30 30 30 30 30 30
56 55 54 53 52 51 50 48 47 47 46 46 46 46 47 46 45 44 42 39 37 33 31 29 27 26 26 27 27 27 27 27 28 27 27 27 28 28 28 28 28 27 27
51 50 50 49 49 48 47 47 46 45 45 44 44 44 43 42 40 37 34 32 29 28 26 24 24 24 25 25 25 25 25 25 25 25 25 25 25 25 24 24 24 23 23
48 47 47 47 46 46 45 44 44 44 43 42 41 39 37 35 31 28 25 24 23 22 21 21 22 22 22 22 23 23 23 23 23 23 24 23 23 22 21 20 19 18 19
45 45 45 45 45 44 43 43 42 41 39 38 35 32 29 25 22 20 19 18 17 18 19 19 19 20 20 21 22 22 22 22 22 22 22 21 20 19 18 17 16 15 15
Wind_Direction
297 291 287 285 283 281 280 279 278 277 276 277 277 279 279 279 279 280 279 278 278 277 277 277 277 277 278 279 279 279 279 278 278 278 277 276 275 274 272 271 270 269 267
293 289 285 282 280 278 276 276 276 275 274 275 275 277 278 279 279 280 280 279 278 278 278 278 278 278 278 278 278 279 279 278 278 277 277 276 275 273 272 271 270 269 268
289 285 283 280 277 276 274 273 272 272 273 273 274 276 277 277 278 279 280 280 280 279 279 280 279 279 278 278 277 277 277 277 276 276 276 275 274 273 272 271 270 269 268
289 286 282 279 275 273 272 271 270 271 271 271 272 275 277 277 277 279 280 281 282 281 280 281 280 279 279 278 277 277 276 276 275 275 274 273 273 272 271 270 270 269 268
290 287 281 278 276 273 270 269 268 268 269 271 272 273 276 277 278 279 281 282 282 282 282 280 280 280 279 278 277 277 277 276 276 275 274 273 272 271 271 271 270 269 268
296 294 287 280 277 275 272 270 268 268 269 271 271 272 276 277 279 282 282 282 282 282 282 282 281 280 279 278 278 278 277 277 276 276 274 273 273 272 271 271 270 269 268
300 298 290 286 284 280 275 269 271 268 271 272 273 275 280 282 283 284 284 284 284 283 282 282 282 281 280 279 278 278 277 277 276 276 274 274 273 272 271 271 270 269 268
302 302 297 294 292 284 279 276 272 269 274 277 279 282 286 287 287 287 288 288 288 287 285 284 283 282 282 281 280 279 278 278 277 276 275 274 273 273 272 271 270 268 267
307 306 306 306 302 294 288 282 280 279 281 284 288 289 291 292 292 290 289 290 290 289 288 287 285 284 283 282 281 280 278 278 277 277 276 275 274 273 272 270 269 268 267
310 312 315 313 310 306 300 297 294 290 289 291 292 292 291 292 294 294 293 292 291 290 289 288 286 285 284 282 281 281 280 279 278 277 277 276 275 273 272 271 270 268 267
309 311 313 312 311 309 306 303 301 297 294 296 296 294 293 293 293 293 294 294 292 290 289 288 287 286 285 283 283 282 281 280 279 278 277 276 275 274 272 271 270 269 267
306 307 309 310 308 307 305 303 301 298 297 297 296 295 293 293 292 292 292 291 290 290 289 288 287 286 285 284 284 283 282 281 280 279 278 277 276 274 273 272 270 269 268
304 305 307 307 306 304 302 300 300 298 297 296 295 293 292 292 291 291 290 290 289 288 288 288 287 287 286 285 285 284 283 282 281 280 278 277 276 274 273 272 271 270 268
302 303 304 304 303 302 301 299 298 296 295 294 293 292 291 291 290 289 289 288 288 288 288 288 287 287 287 286 285 285 284 283 282 281 279 278 276 275 274 273 272 270 268
300 301 301 302 302 300 299 297 296 295 294 292 291 290 290 289 289 289 289 289 288 288 288 288 287 287 287 287 286 286 285 284 283 281 280 279 278 276 275 273 272 270 268
300 300 301 301 300 299 298 296 295 293 292 290 290 290 289 289 289 289 289 289 289 289 289 289 289 288 288 288 287 287 286 285 283 282 281 280 279 277 276 274 273 271 269
299 299 299 299 299 298 297 295 294 293 291 290 290 290 290 290 290 290 290 291 291 291 291 290 290 290 289 289 289 288 287 286 285 284 283 281 279 277 275 274 272 271 269
299 299 299 299 298 297 295 294 293 292 292 291 291 290 290 291 291 291 292 292 292 293 293 293 292 292 292 291 291 290 289 289 287 286 283 280 278 276 274 273 272 271 270
297 297 298 297 296 296 295 294 293 292 292 291 291 291 292 292 292 293 293 294 295 295 296 295 295 294 294 293 293 292 292 291 289 287 284 281 279 277 276 274 273 271 270
296 296 296 296 295 295 294 294 294 293 293 293 293 293 293 294 295 295 296 297 297 298 298 298 298 298 297 296 296 295 295 293 291 289 286 284 281 279 277 275 274 272 270
295 295 295 294 294 294 294 294 294 294 294 294 294 294 295 296 297 298 299 299 300 300 300 301 301 300 300 299 299 299 298 296 294 292 290 287 285 282 279 278 276 274 272
294 294 294 294 294 294 294 294 294 295 295 295 296 296 297 299 300 300 301 301 301 302 303 303 304 303 302 302 302 302 300 299 297 295 293 290 287 284 282 280 278 276 273
294 293 294 294 294 294 294 294 295 295 296 296 297 298 300 301 302 302 302 303 304 304 305 306 307 307 307 307 307 306 305 303 301 299 297 294 290 287 284 282 279 277 273
293 293 293 294 294 294 294 295 295 296 297 298 298 300 301 302 302 303 304 305 307 308 311 313 313 313 313 313 312 311 310 309 307 305 302 298 294 291 287 285 281 278 273
293 293 294 294 294 294 295 295 296 297 297 298 299 300 301 302 303 304 306 308 311 314 317 318 319 320 321 320 319 318 317 316 313 311 308 303 298 294 291 288 285 279 274
294 294 294 295 295 295 296 296 296 297 298 298 299 300 300 301 303 306 309 314 317 320 322 326 329 330 330 330 328 327 324 321 318 315 313 310 304 298 292 288 286 281 276
Height
5878 5876 5874 5873 5872 5871 5870 5869 5868 5867 5866 5865 5864 5864 5863 5862 5861 5860 5859 5859 5858 5858 5857 5856 5856 5855 5855 5854 5853 5852 5852 5851 5850 5850 5849 5849 5849 5849 5849 5849 5849 5850 5850
5873 5872 5870 5868 5867 5866 5865 5864 5863 5862 5861 5860 5859 5858 5857 5856 5855 5854 5853 5852 5851 5851 5850 5849 5848 5847 5847 5846 5845 5844 5843 5842 5841 5841 5840 5839 5839 5839 5839 5839 5839 5840 5840
5868 5866 5864 5862 5861 5859 5858 5857 5856 5855 5855 5854 5853 5852 5850 5849 5848 5847 5846 5845 5844 5843 5842 5841 5840 5839 5838 5837 5835 5835 5834 5833 5832 5831 5830 5829 5829 5828 5828 5828 5828 5828 5829
5862 5860 5856 5854 5852 5851 5850 5850 5849 5848 5847 5846 5845 5845 5843 5842 5841 5840 5839 5837 5835 5834 5833 5833 5831 5830 5828 5827 5825 5824 5823 5822 5821 5820 5819 5818 5817 5817 5816 5816 5816 5816 5817
5855 5852 5848 5845 5843 5842 5841 5840 5840 5839 5839 5838 5837 5837 5835 5834 5833 5832 5831 5829 5827 5825 5824 5823 5821 5819 5818 5817 5815 5813 5812 5810 5809 5808 5807 5806 5805 5804 5803 5803 5803 5803 5803
5848 5844 5840 5837 5836 5834 5833 5832 5831 5831 5830 5829 5829 5828 5827 5826 5825 5824 5823 5821 5819 5816 5814 5812 5811 5809 5807 5805 5803 5801 5799 5798 5796 5795 5793 5792 5791 5790 5789 5789 5788 5788 5789
5840 5836 5833 5830 5828 5827 5826 5824 5823 5823 5822 5822 5821 5820 5819 5818 5817 5815 5813 5811 5809 5807 5804 5802 5799 5797 5795 5793 5791 5788 5786 5784 5782 5780 5778 5777 5776 5775 5774 5773 5773 5773 5773
5834 5829 5826 5824 5822 5820 5818 5817 5816 5816 5815 5814 5813 5811 5811 5811 5809 5806 5804 5801 5799 5796 5793 5791 5788 5785 5782 5778 5776 5775 5771 5769 5767 5764 5762 5761 5759 5758 5757 5756 5755 5755 5756
5828 5824 5821 5818 5815 5813 5811 5810 5809 5808 5807 5807 5805 5803 5802 5800 5798 5797 5794 5790 5787 5784 5781 5778 5774 5771 5767 5764 5760 5757 5756 5752 5749 5747 5744 5743 5741 5740 5738 5737 5737 5737 5737
5822 5819 5816 5813 5810 5808 5807 5805 5803 5801 5800 5798 5797 5794 5792 5790 5786 5783 5781 5778 5774 5770 5767 5763 5759 5755 5751 5747 5743 5740 5737 5735 5731 5728 5725 5723 5721 5719 5718 5717 5716 5716 5717
5817 5815 5812 5809 5806 5804 5802 5799 5797 5794 5792 5790 5787 5785 5782 5778 5774 5770 5766 5763 5759 5755 5751 5746 5742 5737 5733 5729 5725 5721 5719 5715 5711 5708 5705 5702 5700 5698 5697 5696 5695 5695 5696
5811 5808 5805 5803 5800 5797 5795 5792 5789 5786 5783 5779 5776 5773 5769 5765 5761 5756 5752 5748 5743 5739 5733 5729 5723 5718 5714 5709 5705 5701 5699 5695 5691 5688 5684 5682 5679 5677 5675 5674 5673 5673 5674
5802 5799 5797 5794 5792 5789 5786 5782 5779 5775 5771 5768 5764 5760 5756 5751 5747 5742 5737 5732 5727 5722 5716 5711 5705 5699 5694 5689 5684 5682 5678 5674 5670 5667 5663 5660 5658 5655 5653 5652 5651 5651 5651
5793 5790 5787 5784 5781 5778 5775 5771 5767 5763 5759 5755 5750 5746 5741 5736 5732 5727 5721 5716 5711 5706 5699 5693 5687 5681 5675 5669 5664 5661 5657 5653 5649 5645 5642 5638 5635 5633 5631 5630 5629 5628 5628
5783 5779 5776 5773 5769 5766 5762 5758 5754 5750 5745 5740 5736 5731 5726 5721 5716 5710 5704 5698 5693 5689 5684 5675 5669 5663 5657 5651 5645 5641 5636 5632 5628 5624 5620 5617 5614 5612 5610 5608 5606 5606 5605
5771 5767 5764 5760 5756 5752 5748 5744 5739 5735 5730 5725 5720 5715 5710 5704 5699 5693 5688 5681 5675 5670 5666 5659 5651 5645 5639 5633 5627 5622 5617 5612 5608 5604 5600 5597 5594 5591 5589 5587 5586 5585 5584
5758 5754 5750 5746 5742 5738 5733 5729 5724 5719 5714 5710 5704 5699 5694 5689 5683 5677 5671 5665 5659 5653 5648 5643 5634 5628 5621 5615 5609 5603 5598 5593 5589 5585 5582 5578 5575 5573 5571 5570 5569 5568 5567
5744 5740 5735 5731 5726 5722 5717 5713 5708 5703 5699 5694 5689 5683 5678 5673 5667 5661 5656 5649 5643 5637 5631 5626 5619 5611 5604 5598 5592 5586 5581 5576 5572 5568 5565 5562 5560 5558 5557 5555 5554 5553 5552
5730 5725 5720 5715 5711 5706 5701 5697 5692 5688 5683 5678 5673 5668 5663 5658 5652 5646 5641 5634 5628 5621 5615 5609 5603 5595 5588 5582 5576 5571 5566 5561 5557 5554 5551 5549 5547 5545 5544 5542 5541 5540 5539
5715 5710 5705 5700 5695 5690 5686 5681 5677 5673 5668 5663 5658 5653 5648 5643 5638 5632 5626 5620 5613 5607 5600 5594 5587 5581 5575 5568 5563 5558 5554 5550 5546 5542 5540 5538 5536 5534 5532 5530 5528 5527 5526
5700 5694 5689 5685 5680 5675 5671 5666 5662 5658 5653 5649 5644 5639 5635 5630 5624 5618 5612 5606 5600 5594 5587 5581 5575 5570 5564 5558 5553 5548 5544 5540 5536 5532 5530 5527 5524 5522 5520 5518 5516 5515 5514
5684 5679 5674 5670 5665 5661 5656 5652 5648 5644 5640 5635 5631 5626 5621 5617 5611 5606 5600 5594 5588 5583 5577 5571 5566 5561 5555 5550 5545 5540 5536 5532 5528 5525 5520 5517 5514 5511 5509 5508 5506 5504 5503
5670 5665 5660 5655 5651 5647 5643 5639 5635 5631 5627 5623 5618 5614 5609 5604 5599 5594 5588 5583 5578 5573 5568 5563 5558 5553 5549 5544 5539 5534 5529 5524 5520 5516 5512 5508 5505 5502 5500 5498 5496 5494 5493
5656 5651 5646 5642 5638 5634 5630 5626 5622 5619 5615 5611 5607 5602 5598 5593 5588 5584 5579 5574 5570 5566 5561 5557 5553 5548 5543 5538 5533 5528 5523 5518 5513 5509 5505 5501 5497 5494 5491 5489 5487 5486 5485
5642 5638 5634 5629 5625 5622 5618 5614 5610 5607 5604 5600 5596 5592 5588 5584 5580 5576 5572 5569 5565 5561 5557 5553 5548 5543 5538 5533 5528 5523 5517 5513 5508 5503 5498 5494 5490 5487 5485 5482 5480 5479 5478
5630 5625 5621 5617 5613 5610 5606 5602 5599 5596 5592 5589 5586 5583 5580 5577 5574 5571 5568 5565 5561 5558 5554 5550 5545 5540 5535 5530 5524 5519 5513 5508 5503 5498 5493 5489 5485 5481 5479 5477 5475 5474 5473